Grand Forks, ND

11:27 AM CDT on April 19, 2018 (GMT -0500)
Grand Forks International

Weather History for KGFK - May, 2012

Change the Weather History Date:

Friday, May 25, 2012

  Actual Average Record
Temperature  
Mean Temperature 49 °F 58 °F  
Max Temperature 59 °F 71 °F 90 °F (1959)
Min Temperature 39 °F 45 °F 30 °F (2007)
Degree Days  
Heating Degree Days 16 8  
Month to date heating degree days 178 292  
Since 1 July heating degree days 7404 9370  
Cooling Degree Days 0 1  
Month to date cooling degree days 22 10  
Year to date cooling degree days 22 11  
Moisture  
Dew Point 36 °F    
Average Humidity 66    
Maximum Humidity 85    
Minimum Humidity 47    
Precipitation  
Precipitation 0.00 in 0.09 in 0.93 in (2016)
Month to date precipitation 1.04 2.08  
Year to date precipitation 5.13 5.12  
Snow  
Snow 0.00 in 0.00 in - ()
Month to date snowfall 0.0 0.1  
Since 1 July snowfall 22.8 47.4  
Snow Depth 0.00 in    
Sea Level Pressure  
Sea Level Pressure 29.96 in    
Wind  
Wind Speed 10 mph (WNW)    
Max Wind Speed 22 mph    
Max Gust Speed 29 mph    
Visibility 10 miles    
Events      
T = Trace of Precipitation, MM = Missing Value Source: NWS Daily Summary

Daily Weather History Graph

Daily Weather History Graph

Search for Another Location

Airport or City:

Astronomy

May. 25, 2012 Rise Set
Actual Time 5:38 AM CDT 9:13 PM CDT
Civil Twilight 4:59 AM CDT 9:52 PM CDT
Nautical Twilight 4:08 AM CDT 10:44 PM CDT
Astronomical Twilight 2:57 AM CDT 11:56 PM CDT
Moon 9:45 AM CDT (5/25) 12:08 AM CDT (5/25)
Length of Visible Light 16h 52m
Length of Day
15h 34m
Waxing Crescent, 20% of the Moon is Illuminated
May 25
Waxing Crescent
May 28
First Quarter
Jun 4
Full
Jun 11
Last Quarter
Jun 19
New

Hourly Weather History & Observations

Time (CDT) Temp. Windchill Dew Point Humidity Pressure Visibility Wind Dir Wind Speed Gust Speed Precip Events Conditions
12:53 AM 48.9 °F - 36.0 °F 61% 29.73 in 10.0 mi West 9.2 mph - N/A   Overcast
1:53 AM 45.0 °F 40.1 °F 36.0 °F 71% 29.74 in 10.0 mi West 9.2 mph - N/A   Scattered Clouds
2:53 AM 44.1 °F 39.0 °F 35.1 °F 71% 29.77 in 10.0 mi West 9.2 mph - N/A   Clear
3:53 AM 42.1 °F 37.1 °F 35.1 °F 76% 29.80 in 10.0 mi West 8.1 mph - N/A   Clear
4:53 AM 42.1 °F 37.7 °F 35.1 °F 76% 29.82 in 10.0 mi West 6.9 mph - N/A   Partly Cloudy
5:53 AM 39.9 °F 35.8 °F 35.1 °F 83% 29.84 in 10.0 mi West 5.8 mph - N/A   Partly Cloudy
6:53 AM 43.0 °F 41.3 °F 37.0 °F 80% 29.85 in 10.0 mi West 3.5 mph - N/A   Partly Cloudy
7:53 AM 48.0 °F - 39.9 °F 74% 29.87 in 10.0 mi WSW 6.9 mph - N/A   Clear
8:53 AM 52.0 °F - 39.0 °F 61% 29.89 in 10.0 mi SW 11.5 mph - N/A   Partly Cloudy
9:53 AM 53.1 °F - 37.9 °F 57% 29.89 in 10.0 mi West 10.4 mph - N/A   Scattered Clouds
10:53 AM 55.9 °F - 37.9 °F 51% 29.92 in 10.0 mi West 15.0 mph 19.6 mph N/A   Mostly Cloudy
11:53 AM 57.0 °F - 37.0 °F 47% 29.94 in 10.0 mi WNW 13.8 mph 24.2 mph N/A   Mostly Cloudy
12:53 PM 55.9 °F - 37.0 °F 49% 29.98 in 10.0 mi WNW 17.3 mph - N/A   Overcast
1:53 PM 55.0 °F - 37.0 °F 51% 30.01 in 10.0 mi WNW 11.5 mph 21.9 mph N/A   Overcast
2:53 PM 57.0 °F - 37.9 °F 49% 30.01 in 10.0 mi NW 16.1 mph 25.3 mph N/A   Mostly Cloudy
3:53 PM 55.9 °F - 36.0 °F 47% 30.03 in 10.0 mi NW 12.7 mph 20.7 mph N/A   Overcast
4:53 PM 55.0 °F - 36.0 °F 49% 30.04 in 10.0 mi NW 13.8 mph - N/A   Overcast
5:53 PM 55.0 °F - 36.0 °F 49% 30.08 in 10.0 mi NNW 13.8 mph - N/A   Mostly Cloudy
6:53 PM 54.0 °F - 35.1 °F 49% 30.09 in 10.0 mi NW 8.1 mph - N/A   Mostly Cloudy
7:53 PM 53.1 °F - 36.0 °F 52% 30.10 in 10.0 mi NNW 8.1 mph - N/A   Mostly Cloudy
8:53 PM 48.9 °F - 36.0 °F 61% 30.12 in 10.0 mi North 8.1 mph - N/A   Mostly Cloudy
9:53 PM 45.0 °F 41.2 °F 35.1 °F 68% 30.15 in 10.0 mi North 6.9 mph - N/A   Mostly Cloudy
10:53 PM 42.1 °F 38.4 °F 35.1 °F 76% 30.17 in 10.0 mi North 5.8 mph - N/A   Overcast
11:53 PM 41.0 °F 38.0 °F 35.1 °F 79% 30.18 in 10.0 mi North 4.6 mph - N/A   Mostly Cloudy